Tracking 20093 objects as of 16-Dec-2019
HD Live streaming from Space Station
objects crossing your sky now

COSMOS 2251 DEB

Track COSMOS 2251 DEB now!
10-day predictions


NORAD ID: 33999
Int'l Code: 1993-036GJ
Perigee: 669.4 km
Apogee: 773.4 km
Inclination: 73.9 °
Period: 99.1 minutes
Semi major axis: 7092 km
RCS: 0.0543 m2 (small)
Launch date: June 16, 1993
Source: Commonwealth of Independent States (former USSR) (CIS)
Launch site: PLESETSK MISSILE AND SPACE COMPLEX (PKMTR)

Note: This is SATELLITE DEBRIS
aabbcc
Your satellite tracking list
Your tracking list is empty




NASA's NSSDC Master Catalog

Two Line Element Set (TLE):
1 33999U 93036GJ  19349.69325783 +.00000513 +00000-0 +12583-3 0  9994
2 33999 073.9366 121.7531 0073342 151.5278 208.9922 14.53494808572818
Source of the keplerian elements: AFSPC